• In Deutschland
  • Länderverzeichnis
  • Für 7 Tage
  • Wassertemperatur
  • Satellitenkarten
  • Wetterkarte
  • Widgets
  • user-avatar
    Anmelden

    Stündliche Wetter Backnang

    Heute, 26 April, Donnerstag

    Zeit Temperatur Niederschläge Wind Luftdruck Luftfeuchtigkeit
    00:00 +10°C° 0 mm 3 m/S 737 mmHg 88%
    01:00 +10°C° 0 mm 3 m/S 737 mmHg 88%
    02:00 +9°C° 0 mm 3 m/S 737 mmHg 88%
    03:00 +9°C° 0 mm 3 m/S 737 mmHg 87%
    04:00 +8°C° 0 mm 3 m/S 737 mmHg 87%
    05:00 +9°C° 0 mm 3 m/S 737 mmHg 84%
    06:00 +8°C° 0 mm 4 m/S 738 mmHg 82%
    07:00 +8°C° 0 mm 5 m/S 738 mmHg 80%
    08:00 +9°C° 0 mm 5 m/S 738 mmHg 73%
    09:00 +10°C° 0 mm 6 m/S 739 mmHg 66%
    10:00 +11°C° 0 mm 6 m/S 739 mmHg 59%
    11:00 +13°C° 0,1 mm 6 m/S 739 mmHg 55%
    12:00 +13°C° 0,1 mm 6 m/S 739 mmHg 52%
    13:00 +14°C° 0,1 mm 6 m/S 739 mmHg 49%
    14:00 +14°C° 0 mm 6 m/S 738 mmHg 49%
    15:00 +14°C° 0 mm 5 m/S 738 mmHg 48%
    16:00 +14°C° 0 mm 5 m/S 738 mmHg 48%
    17:00 +13°C° 0 mm 4 m/S 738 mmHg 54%
    18:00 +12°C° 0 mm 3 m/S 738 mmHg 60%
    19:00 +12°C° 0 mm 2 m/S 738 mmHg 65%
    20:00 +9°C° 0 mm 2 m/S 738 mmHg 68%
    21:00 +9°C° 0 mm 1 m/S 739 mmHg 71%
    22:00 +8°C° 0 mm 1 m/S 739 mmHg 73%
    23:00 +8°C° 0 mm 1 m/S 738 mmHg 75%

    Morgen, 27 April, Freitag

    Zeit Temperatur Niederschläge Wind Luftdruck Luftfeuchtigkeit
    00:00 +8°C° 0 mm 1 m/S 738 mmHg 76%
    01:00 +7°C° 0 mm 1 m/S 738 mmHg 77%
    02:00 +7°C° 0 mm 1 m/S 737 mmHg 78%
    03:00 +7°C° 0 mm 1 m/S 737 mmHg 78%
    04:00 +7°C° 0 mm 1 m/S 736 mmHg 78%
    05:00 +8°C° 0 mm 1 m/S 736 mmHg 76%
    06:00 +8°C° 0 mm 2 m/S 735 mmHg 74%
    07:00 +9°C° 0 mm 2 m/S 735 mmHg 72%
    08:00 +12°C° 0 mm 2 m/S 734 mmHg 67%
    09:00 +13°C° 0 mm 3 m/S 734 mmHg 62%
    10:00 +16°C° 0 mm 3 m/S 733 mmHg 57%
    11:00 +17°C° 0 mm 3 m/S 733 mmHg 54%
    12:00 +19°C° 0 mm 3 m/S 732 mmHg 51%
    13:00 +20°C° 0 mm 3 m/S 732 mmHg 48%
    14:00 +21°C° 0 mm 3 m/S 731 mmHg 47%
    15:00 +21°C° 0 mm 3 m/S 731 mmHg 46%
    16:00 +22°C° 0 mm 3 m/S 731 mmHg 45%
    17:00 +20°C° 0 mm 3 m/S 731 mmHg 51%
    18:00 +19°C° 0 mm 2 m/S 731 mmHg 57%
    19:00 +17°C° 0 mm 2 m/S 731 mmHg 62%
    20:00 +16°C° 0 mm 2 m/S 732 mmHg 65%
    21:00 +14°C° 0 mm 2 m/S 733 mmHg 68%
    22:00 +12°C° 0 mm 3 m/S 733 mmHg 70%
    23:00 +11°C° 0 mm 3 m/S 734 mmHg 75%

    übermorgen, 28 April, Samstag

    Zeit Temperatur Niederschläge Wind Luftdruck Luftfeuchtigkeit
    00:00 +11°C° 0 mm 3 m/S 734 mmHg 79%
    01:00 +10°C° 0 mm 3 m/S 734 mmHg 83%
    02:00 +10°C° 0 mm 3 m/S 734 mmHg 86%
    03:00 +9°C° 0 mm 3 m/S 735 mmHg 88%
    04:00 +8°C° 0 mm 3 m/S 735 mmHg 91%
    05:00 +9°C° 0 mm 3 m/S 735 mmHg 87%
    06:00 +9°C° 0 mm 3 m/S 735 mmHg 84%
    07:00 +10°C° 0 mm 3 m/S 736 mmHg 80%
    08:00 +11°C° 0 mm 3 m/S 736 mmHg 74%
    09:00 +12°C° 0 mm 3 m/S 736 mmHg 68%
    10:00 +14°C° 0 mm 3 m/S 736 mmHg 61%
    11:00 +16°C° 0 mm 2 m/S 736 mmHg 58%
    12:00 +17°C° 0 mm 2 m/S 736 mmHg 55%
    13:00 +18°C° 0 mm 2 m/S 736 mmHg 52%
    14:00 +18°C° 0 mm 2 m/S 735 mmHg 52%
    15:00 +19°C° 0 mm 1 m/S 735 mmHg 52%
    16:00 +19°C° 0 mm 1 m/S 735 mmHg 53%
    17:00 +18°C° 0 mm 1 m/S 734 mmHg 58%
    18:00 +16°C° 0 mm 2 m/S 734 mmHg 64%
    19:00 +15°C° 0 mm 2 m/S 734 mmHg 70%
    20:00 +14°C° 0 mm 2 m/S 734 mmHg 73%
    21:00 +13°C° 0 mm 2 m/S 735 mmHg 75%
    22:00 +12°C° 0 mm 2 m/S 735 mmHg 78%
    23:00 +12°C° 0 mm 2 m/S 734 mmHg 78%

    29 April, Sonntag

    Zeit Temperatur Niederschläge Wind Luftdruck Luftfeuchtigkeit
    00:00 +10°C° 0 mm 2 m/S 734 mmHg 79%
    01:00 +10°C° 0 mm 2 m/S 734 mmHg 80%
    02:00 +10°C° 0 mm 2 m/S 733 mmHg 80%
    03:00 +10°C° 0 mm 2 m/S 733 mmHg 81%
    04:00 +10°C° 0 mm 2 m/S 733 mmHg 81%
    05:00 +10°C° 0 mm 2 m/S 732 mmHg 81%
    06:00 +12°C° 0 mm 2 m/S 732 mmHg 80%
    07:00 +13°C° 0 mm 2 m/S 732 mmHg 79%
    08:00 +15°C° 0 mm 2 m/S 732 mmHg 74%
    09:00 +17°C° 0 mm 2 m/S 731 mmHg 70%
    10:00 +19°C° 0 mm 2 m/S 731 mmHg 66%
    11:00 +21°C° 0 mm 2 m/S 731 mmHg 62%
    12:00 +23°C° 0 mm 2 m/S 730 mmHg 57%
    13:00 +25°C° 0 mm 2 m/S 730 mmHg 53%
    14:00 +25°C° 0 mm 3 m/S 729 mmHg 54%
    15:00 +25°C° 0 mm 3 m/S 729 mmHg 54%
    16:00 +25°C° 0 mm 3 m/S 728 mmHg 55%
    17:00 +24°C° 0,1 mm 3 m/S 728 mmHg 62%
    18:00 +21°C° 0,1 mm 3 m/S 728 mmHg 69%
    19:00 +20°C° 0,1 mm 2 m/S 727 mmHg 77%
    20:00 +19°C° 0,1 mm 2 m/S 727 mmHg 79%
    21:00 +18°C° 0,1 mm 2 m/S 727 mmHg 82%
    22:00 +17°C° 0,1 mm 2 m/S 727 mmHg 85%
    23:00 +16°C° 0,3 mm 2 m/S 726 mmHg 87%

    30 April, Montag

    Zeit Temperatur Niederschläge Wind Luftdruck Luftfeuchtigkeit
    00:00 +16°C° 0,3 mm 2 m/S 726 mmHg 90%
    01:00 +15°C° 0,3 mm 2 m/S 725 mmHg 93%
    02:00 +15°C° 0 mm 2 m/S 725 mmHg 93%
    03:00 +14°C° 0 mm 2 m/S 725 mmHg 93%
    04:00 +14°C° 0 mm 2 m/S 725 mmHg 93%
    05:00 +13°C° 0 mm 3 m/S 725 mmHg 91%
    06:00 +13°C° 0 mm 5 m/S 726 mmHg 90%
    07:00 +13°C° 0 mm 6 m/S 727 mmHg 88%
    08:00 +11°C° 0,1 mm 6 m/S 728 mmHg 86%
    09:00 +10°C° 0,1 mm 7 m/S 729 mmHg 84%
    10:00 +9°C° 0,1 mm 7 m/S 730 mmHg 83%
    11:00 +9°C° 0,3 mm 6 m/S 731 mmHg 83%
    12:00 +9°C° 0,3 mm 6 m/S 731 mmHg 83%
    13:00 +9°C° 0,3 mm 6 m/S 732 mmHg 83%
    14:00 +10°C° 0,2 mm 5 m/S 732 mmHg 80%
    15:00 +11°C° 0,2 mm 4 m/S 733 mmHg 76%
    16:00 +12°C° 0,2 mm 4 m/S 733 mmHg 73%
    17:00 +12°C° 0 mm 3 m/S 733 mmHg 74%
    18:00 +12°C° 0 mm 2 m/S 733 mmHg 74%
    19:00 +12°C° 0 mm 1 m/S 733 mmHg 75%
    20:00 +11°C° 0 mm 1 m/S 733 mmHg 77%
    21:00 +10°C° 0 mm 1 m/S 734 mmHg 80%
    22:00 +9°C° 0 mm 1 m/S 734 mmHg 82%
    23:00 +9°C° 0 mm 1 m/S 734 mmHg 83%

    1 Mai, Dienstag

    Zeit Temperatur Niederschläge Wind Luftdruck Luftfeuchtigkeit
    00:00 +8°C° 0 mm 1 m/S 734 mmHg 84%
    01:00 +8°C° 0 mm 1 m/S 734 mmHg 85%
    02:00 +8°C° 0 mm 1 m/S 734 mmHg 85%
    03:00 +7°C° 0 mm 1 m/S 734 mmHg 86%
    04:00 +7°C° 0 mm 1 m/S 734 mmHg 86%
    05:00 +8°C° 0 mm 1 m/S 734 mmHg 83%
    06:00 +9°C° 0 mm 1 m/S 734 mmHg 79%
    07:00 +10°C° 0 mm 1 m/S 734 mmHg 76%
    08:00 +12°C° 0 mm 1 m/S 734 mmHg 68%
    09:00 +14°C° 0 mm 2 m/S 734 mmHg 61%
    10:00 +16°C° 0 mm 2 m/S 734 mmHg 54%
    11:00 +17°C° 0 mm 3 m/S 733 mmHg 51%
    12:00 +18°C° 0 mm 3 m/S 733 mmHg 48%
    13:00 +19°C° 0 mm 3 m/S 733 mmHg 45%
    14:00 +19°C° 0 mm 3 m/S 732 mmHg 46%
    15:00 +19°C° 0 mm 3 m/S 732 mmHg 46%
    16:00 +19°C° 0 mm 3 m/S 732 mmHg 46%
    17:00 +18°C° 0 mm 3 m/S 732 mmHg 53%
    18:00 +17°C° 0 mm 2 m/S 732 mmHg 60%
    19:00 +15°C° 0 mm 2 m/S 732 mmHg 67%
    20:00 +14°C° 0 mm 2 m/S 732 mmHg 69%
    21:00 +13°C° 0 mm 2 m/S 732 mmHg 72%
    22:00 +11°C° 0 mm 1 m/S 733 mmHg 74%
    23:00 +11°C° 0 mm 1 m/S 733 mmHg 76%
    Mehr zeigen